[[{"header":{"parameterUnit":"m.s-1","parameterCategory":1,"la1":30.2991,"la2":30.254,"lo1":-89.0895,"lo2":-89.0444,"dy":0.0017,"dx":0.0017,"nx":28,"ny":28,"refTime":"2023-10-10T09:00:00:Z","depth":0,"parameterNumber":2,"parameterNumberName":"U-component_of_WINDS"},"data":[0,0,0,0,0,0,0,0,0,0,0,0,0,0,0,0,0,0,0,0,0,0,0,0,0,0,0,0,0,0,0,0,0,0,0,0,0,0,0,0,0,0,0,0,0,0,0,0,0,0,0,0,0,0,0,0,0,0,-9.4873,-9.4874,0,-9.4984,-9.4986,-9.4987,-9.4881,-9.4877,-9.4872,-9.4868,-9.4976,-9.4983,-9.499,0,0,0,0,0,0,0,0,0,0,0,0,0,-9.456,-9.4566,-9.4872,-9.4874,-9.4875,-9.4984,-9.4986,-9.4987,-9.4882,-9.4876,-9.4871,-9.4866,-9.4974,-9.4982,-9.499,0,0,0,0,0,0,0,0,0,0,0,0,0,-9.4686,-9.4568,-9.4872,-9.4836,-9.4834,-9.4984,-9.4986,-9.4988,-9.4883,-9.4876,-9.487,-9.4864,-9.4972,-9.4981,-9.4992,-9.5181,0,0,-9.5023,-9.5027,0,0,0,0,0,0,0,0,-9.4679,-9.4697,-9.484,-9.4839,-9.4837,-9.4912,-9.4915,-9.5052,-9.4884,-9.4864,-9.4868,-9.4861,-9.496,-9.4971,-9.5005,-9.5186,-9.5191,-9.5024,-9.503,-9.5034,-9.5037,0,0,0,0,0,0,0,-9.467,-9.4692,-9.4916,-9.4842,-9.484,-9.4811,-9.4822,-9.494,-9.4946,-9.4865,-9.4858,-9.4873,-9.4958,-9.4996,-9.5007,-9.5192,-9.5023,-9.5032,-9.5039,-9.5043,-9.5532,-9.5539,0,0,0,0,0,0,-9.4666,-9.4685,-9.4913,-9.492,-9.4741,-9.4822,-9.4834,-9.4894,-9.4944,-9.4946,-9.4878,-9.4867,-9.4981,-9.4995,-9.501,-9.5234,-9.5034,-9.5044,-9.505,-9.5525,-9.5534,-9.5541,0,0,0,0,0,0,-9.466,-9.4688,-9.4908,-9.4801,-9.4827,-9.4834,-9.4902,-9.49,-9.4938,-9.4954,-9.4954,-9.4917,-9.4977,-9.4996,-9.5139,-9.5236,-9.5048,-9.5058,-9.5517,-9.5528,-9.5537,-9.5684,0,0,0,0,0,0,-9.4652,-9.4686,-9.476,-9.4803,-9.4833,-9.5038,-9.4908,-9.4907,-9.4956,-9.4944,-9.499,-9.4992,-9.4973,-9.5125,-9.515,-9.5247,-9.5066,-9.5509,-9.5522,-9.5534,-9.5671,-9.5699,-9.5722,0,0,0,0,0,-9.4641,-9.4796,-9.4765,-9.4793,-9.4926,-9.5044,-9.5061,-9.5039,-9.4965,-9.5038,-9.5048,-9.499,-9.5222,-9.514,-9.5167,-9.5269,-9.5502,-9.5518,-9.5533,-9.5659,-9.5693,-9.5722,0,0,0,0,0,0,-9.4762,-9.4801,-9.4766,-9.4941,-9.499,-9.5026,-9.5118,-9.5075,-9.5145,-9.513,-9.5097,-9.5108,-9.526,-9.5279,-9.5187,-9.5454,-9.535,-9.5372,-9.5437,-9.5469,-9.5494,-9.5485,-9.5074,0,0,0,0,0,-9.4809,-9.4905,-9.4933,-9.5083,-9.511,-9.511,-9.5161,-9.514,-9.5188,-9.5208,-9.5229,-9.5277,-9.536,-9.5415,-9.5493,-9.5673,-9.5681,-9.5757,-9.5782,-9.5803,-9.5822,-9.5917,-9.595,-9.5592,-9.5592,-9.5592,0,0,-9.4907,-9.4941,-9.5002,-9.5109,-9.5144,-9.5241,-9.5128,-9.5236,-9.5306,-9.5224,-9.5361,-9.5378,-9.5428,-9.5591,-9.5663,-9.5611,-9.5923,-9.5823,-9.584,-9.5847,-9.5936,-9.597,-9.6,-9.5603,-9.5601,-9.5599,0,0,-9.5135,-9.5171,-9.53,-9.5339,-9.5395,-9.5394,-9.5425,-9.5467,-9.5476,-9.5614,-9.5553,-9.5635,-9.578,-9.5819,-9.5857,-9.6099,-9.6048,-9.6125,-9.6259,-9.6351,-9.638,-9.6404,-9.6489,-9.652,-9.6144,-9.6145,-9.6145,0,-9.5249,-9.5395,-9.5371,-9.5483,-9.5531,-9.5463,-9.5591,-9.5629,-9.5707,-9.574,-9.5681,-9.5861,-9.5891,-9.606,-9.612,-9.6154,-9.6186,-9.6119,-9.6378,-9.6403,-9.6425,-9.6505,-9.6538,-9.6154,-9.6153,-9.6152,-9.6151,0,-9.5531,-9.5633,-9.573,-9.581,-9.5868,-9.5988,-9.5979,-9.6041,-9.6015,-9.6019,-9.6158,-9.6192,-9.6274,-9.6313,-9.6288,-9.6479,-9.6445,-9.6383,-9.6277,-9.6469,-9.6543,-9.6574,-9.6166,-9.6163,-9.616,-9.6158,0,0,-9.5838,-9.5903,-9.5939,-9.5973,-9.603,-9.6107,-9.6223,-9.6306,-9.6358,-9.6414,-9.6508,-9.6633,-9.6575,-9.6619,-9.6597,-9.6679,-9.6867,-9.6607,-9.6607,-9.6652,-9.7077,-9.7122,-9.7159,-9.6834,-9.6839,-9.6844,-9.7072,0,-9.6066,-9.627,-9.6251,-9.6443,-9.6535,-9.6472,-9.6572,-9.6616,-9.6624,-9.6701,-9.6707,-9.6795,-9.6714,-9.674,-9.6818,-9.6828,-9.6951,-9.6811,-9.6919,-9.6923,-9.6907,-9.7198,-9.7246,-9.746,-9.7101,-9.7106,-9.711,0,-9.636,-9.6428,-9.663,-9.6672,-9.671,-9.6801,-9.6874,-9.695,-9.6998,-9.6997,-9.7047,-9.7011,-9.7124,-9.7018,-9.7172,-9.7077,-9.712,-9.7131,-9.7139,-9.7147,-9.7027,-9.7212,-9.7528,-9.756,-9.7156,-9.7152,-9.7149,0,-9.6562,-9.6704,-9.6842,-9.6874,-9.6927,-9.6992,-9.7016,-9.7059,-9.7109,-9.7173,-9.7205,-9.7281,-9.7322,-9.738,-9.7364,-9.7288,-9.7522,-9.7414,-9.7522,-9.7523,-9.7573,-9.757,-9.7899,-9.7604,-9.7604,-9.7603,-9.7603,0,-9.6818,-9.6943,-9.6933,-9.7019,-9.7156,-9.7133,-9.7269,-9.7285,-9.7323,-9.7408,-9.7357,-9.7438,-9.7413,-9.7492,-9.748,-9.7609,-9.7629,-9.7629,-9.7624,-9.7633,-9.7633,-9.766,-9.7644,-9.7612,-9.761,-9.7608,-9.7607,0,-9.7065,-9.7064,-9.7211,-9.7249,-9.7262,-9.7361,-9.7393,-9.7472,-9.7475,-9.7583,-9.7607,-9.7611,-9.7701,-9.7692,-9.7793,-9.7785,-9.7944,-9.7922,-9.7929,-9.7923,-9.8031,-9.8021,-9.8388,-9.8434,-9.8111,-9.8114,-9.8117,0,-9.7228,-9.7323,-9.7372,-9.7427,-9.7456,-9.7545,-9.7596,-9.7576,-9.7632,-9.7694,-9.7765,-9.7851,-9.7918,-9.8064,-9.8075,-9.8151,-9.8129,-9.8253,-9.814,-9.8146,-9.8129,-9.8123,-9.8132,-9.8274,-9.8278,-9.8281,-9.8284,0,-9.7517,-9.7511,-9.7589,-9.7667,-9.7731,-9.779,-9.7844,-9.7891,-9.7876,-9.7941,-9.8033,-9.8086,-9.8189,-9.8274,-9.8346,-9.8368,-9.8323,-9.8319,-9.8348,-9.8357,-9.8356,-9.8357,-9.7987,-9.831,-9.8308,-9.8306,-9.8304,-9.8303,-9.7725,-9.7807,-9.7854,-9.7942,-9.7981,-9.8032,-9.8108,-9.8121,-9.8199,-9.8282,-9.8265,-9.8369,-9.8413,-9.8505,-9.8535,-9.8614,-9.8569,-9.8611,-9.8622,-9.8632,-9.8644,-9.8345,-9.8628,-9.8627,-9.8626,-9.8625,-9.8625,0,-9.801,-9.8037,-9.8118,-9.8197,-9.8265,-9.8219,-9.8276,-9.8336,-9.8429,-9.8474,-9.8542,-9.8648,-9.873,-9.8747,-9.8825,-9.8885,-9.8866,-9.8906,-9.8901,-9.8906,-9.8681,-9.8647,-9.892,-9.892,-9.892,-9.892,-9.892,-9.892,-9.8166,-9.83,-9.83,-9.8452,-9.8478,-9.8581,-9.8617,-9.8664,-9.87,-9.8821,-9.889,-9.8901,-9.8935,-9.9015,-9.9088,-9.909,-9.9121,-9.9169,-9.9163,-9.8952,-9.8922,-9.8894,-9.8862,-9.9176,-9.9176,-9.9382,-9.9383,-9.9385]},{"header":{"parameterUnit":"m.s-1","parameterCategory":1,"la1":30.2991,"la2":30.254,"lo1":-89.0895,"lo2":-89.0444,"dy":0.0017,"dx":0.0017,"nx":28,"ny":28,"refTime":"2023-10-10T09:00:00:Z","depth":0,"parameterNumber":3,"parameterNumberName":"V-component_of_WINDS"},"data":[0,0,0,0,0,0,0,0,0,0,0,0,0,0,0,0,0,0,0,0,0,0,0,0,0,0,0,0,0,0,0,0,0,0,0,0,0,0,0,0,0,0,0,0,0,0,0,0,0,0,0,0,0,0,0,0,0,0,-0.9876,-0.9872,0,-0.957,-0.9566,-0.9563,-0.9456,-0.9458,-0.9459,-0.946,-0.9143,-0.9134,-0.9125,0,0,0,0,0,0,0,0,0,0,0,0,0,-1.0366,-1.0357,-0.9876,-0.9872,-0.9868,-0.957,-0.9566,-0.9562,-0.9456,-0.9458,-0.9459,-0.946,-0.9146,-0.9135,-0.9124,0,0,0,0,0,0,0,0,0,0,0,0,0,-1.0116,-1.0355,-0.9877,-0.978,-0.9768,-0.9571,-0.9566,-0.9561,-0.9456,-0.9458,-0.9459,-0.9461,-0.915,-0.9136,-0.9122,-0.8998,0,0,-0.9078,-0.9072,0,0,0,0,0,0,0,0,-1.013,-1.0098,-0.9798,-0.9786,-0.9773,-0.9553,-0.9622,-0.9372,-0.9455,-0.9574,-0.946,-0.9462,-0.9278,-0.9253,-0.9192,-0.8983,-0.897,-0.9077,-0.9068,-0.9062,-0.9058,0,0,0,0,0,0,0,-1.0148,-1.011,-0.9755,-0.9794,-0.9778,-0.975,-0.9717,-0.9574,-0.942,-0.9564,-0.9556,-0.9521,-0.9271,-0.9206,-0.9184,-0.8965,-0.9078,-0.9065,-0.9056,-0.905,-0.8637,-0.8635,0,0,0,0,0,0,-1.0182,-1.0126,-0.9764,-0.9745,-0.996,-0.974,-0.9703,-0.9622,-0.9421,-0.9392,-0.952,-0.9517,-0.9229,-0.92,-0.9172,-0.9012,-0.9062,-0.9049,-0.9041,-0.864,-0.8637,-0.8634,0,0,0,0,0,0,-1.0193,-1.015,-0.9777,-0.9933,-0.9883,-0.973,-0.964,-0.9615,-0.9549,-0.9388,-0.9359,-0.9481,-0.923,-0.9192,-0.9042,-0.8999,-0.9043,-0.903,-0.8642,-0.8639,-0.8635,-0.8692,0,0,0,0,0,0,-1.0207,-1.0155,-1.0107,-0.9933,-0.9876,-0.9653,-0.9637,-0.9607,-0.9525,-0.9519,-0.9344,-0.9317,-0.9228,-0.9064,-0.9028,-0.898,-0.9018,-0.8645,-0.8641,-0.8637,-0.8693,-0.8691,-0.8689,0,0,0,0,0,-1.0225,-1.0135,-1.0105,-1.0062,-0.9813,-0.9651,-0.9618,-0.9518,-0.9522,-0.9472,-0.9368,-0.9322,-0.9011,-0.9049,-0.9008,-0.8956,-0.8648,-0.8642,-0.8637,-0.8694,-0.8691,-0.8689,0,0,0,0,0,0,-1.0307,-1.011,-1.0075,-0.9926,-0.9806,-0.9633,-0.9567,-0.9519,-0.9394,-0.9393,-0.9274,-0.9236,-0.9094,-0.901,-0.9057,-0.8824,-0.8826,-0.8812,-0.8884,-0.888,-0.8878,-0.89,-0.9007,0,0,0,0,0,-1.0308,-1.0194,-1.0028,-0.9913,-0.9854,-0.9721,-0.9647,-0.9581,-0.9451,-0.9399,-0.9285,-0.916,-0.9033,-0.8952,-0.8827,-0.8681,-0.864,-0.8625,-0.8623,-0.8622,-0.861,-0.8525,-0.8515,-0.8616,-0.8616,-0.8617,0,0,-1.0308,-1.0187,-1.0122,-0.9926,-0.9825,-0.9708,-0.9679,-0.9557,-0.9469,-0.938,-0.9231,-0.9143,-0.8995,-0.8847,-0.8775,-0.8772,-0.8573,-0.8615,-0.8615,-0.8604,-0.8518,-0.8509,-0.85,-0.8613,-0.8613,-0.8614,0,0,-1.0249,-1.0147,-1.0038,-0.9938,-0.9786,-0.9698,-0.9673,-0.9506,-0.9444,-0.9293,-0.9224,-0.9117,-0.8902,-0.8799,-0.8719,-0.8621,-0.8574,-0.8584,-0.8571,-0.8489,-0.8481,-0.8474,-0.8437,-0.8425,-0.8574,-0.8574,-0.8574,0,-1.0268,-1.0091,-0.9989,-0.987,-0.9785,-0.9701,-0.959,-0.9497,-0.9312,-0.9254,-0.9254,-0.8982,-0.8877,-0.8701,-0.8678,-0.8616,-0.8581,-0.8602,-0.8491,-0.8482,-0.8474,-0.8437,-0.8423,-0.8576,-0.8575,-0.8575,-0.8575,0,-1.0121,-0.9999,-0.9929,-0.9753,-0.9661,-0.9547,-0.9426,-0.9344,-0.9287,-0.9199,-0.9045,-0.8916,-0.8763,-0.8717,-0.8659,-0.8533,-0.8535,-0.8515,-0.8514,-0.8468,-0.8431,-0.8416,-0.8579,-0.8578,-0.8577,-0.8577,0,0,-1.0103,-0.9872,-0.9848,-0.9767,-0.9593,-0.9496,-0.9378,-0.9228,-0.916,-0.9035,-0.8931,-0.8752,-0.8731,-0.864,-0.857,-0.8499,-0.8427,-0.8486,-0.8481,-0.8478,-0.8277,-0.8292,-0.8278,-0.8396,-0.8392,-0.839,-0.8289,0,-1.0019,-0.9804,-0.9709,-0.9537,-0.9422,-0.9341,-0.9237,-0.9119,-0.9034,-0.8923,-0.8828,-0.8702,-0.8685,-0.863,-0.8556,-0.8452,-0.8385,-0.8458,-0.8295,-0.8291,-0.8333,-0.8259,-0.8274,-0.8185,-0.8274,-0.8272,-0.827,0,-0.9892,-0.9768,-0.9585,-0.9424,-0.9372,-0.9281,-0.9135,-0.9031,-0.8895,-0.8838,-0.8737,-0.867,-0.854,-0.8551,-0.837,-0.8422,-0.835,-0.8289,-0.8283,-0.8262,-0.8276,-0.8234,-0.8154,-0.814,-0.8247,-0.8249,-0.825,0,-0.9895,-0.9682,-0.9544,-0.9477,-0.9287,-0.9224,-0.9142,-0.9007,-0.8923,-0.8797,-0.874,-0.8601,-0.8523,-0.8416,-0.8312,-0.833,-0.8141,-0.8143,-0.8087,-0.809,-0.8049,-0.8053,-0.7955,-0.8008,-0.8008,-0.8008,-0.8008,0,-0.9809,-0.97,-0.9542,-0.9457,-0.9332,-0.9223,-0.9102,-0.9013,-0.8894,-0.879,-0.8712,-0.8615,-0.8485,-0.8372,-0.829,-0.8151,-0.8118,-0.8066,-0.8045,-0.8072,-0.8078,-0.8021,-0.8024,-0.8004,-0.8005,-0.8006,-0.8007,0,-0.979,-0.9681,-0.9525,-0.9358,-0.9313,-0.9228,-0.9084,-0.8997,-0.8909,-0.8778,-0.8741,-0.8601,-0.8463,-0.835,-0.8169,-0.8114,-0.7969,-0.7946,-0.8015,-0.8004,-0.7954,-0.7959,-0.7814,-0.7789,-0.7862,-0.7861,-0.7861,0,-0.9742,-0.9656,-0.948,-0.9405,-0.9324,-0.9204,-0.9118,-0.9008,-0.8922,-0.876,-0.8692,-0.8549,-0.8429,-0.8212,-0.8093,-0.7954,-0.7926,-0.7885,-0.7904,-0.7933,-0.7922,-0.7928,-0.7917,-0.7882,-0.7882,-0.7882,-0.7882,0,-0.9667,-0.9617,-0.9497,-0.9358,-0.9258,-0.9143,-0.9025,-0.8968,-0.8836,-0.8743,-0.8602,-0.8508,-0.8324,-0.8182,-0.803,-0.7944,-0.7889,-0.7877,-0.7856,-0.7881,-0.7923,-0.7897,-0.8008,-0.788,-0.788,-0.788,-0.7881,-0.7881,-0.9629,-0.9548,-0.9412,-0.928,-0.9181,-0.9073,-0.8984,-0.8885,-0.8765,-0.8607,-0.855,-0.8404,-0.8269,-0.806,-0.7973,-0.7856,-0.785,-0.7821,-0.7813,-0.7807,-0.7809,-0.7945,-0.7828,-0.7828,-0.7828,-0.7828,-0.7828,0,-0.9548,-0.9457,-0.9337,-0.9176,-0.9072,-0.9033,-0.8901,-0.8816,-0.869,-0.8569,-0.8452,-0.8289,-0.8151,-0.8022,-0.7877,-0.7809,-0.778,-0.7774,-0.7777,-0.7757,-0.7824,-0.7855,-0.7799,-0.7799,-0.7799,-0.78,-0.78,-0.78,-0.9493,-0.9354,-0.9288,-0.9098,-0.9007,-0.8864,-0.8792,-0.8692,-0.8594,-0.8416,-0.8302,-0.8219,-0.8094,-0.794,-0.7811,-0.7776,-0.7725,-0.7725,-0.7684,-0.7748,-0.7753,-0.7757,-0.7785,-0.7716,-0.7716,-0.7626,-0.7626,-0.7625]}]]